Time,TemperatureF,DewpointF,PressureIn,WindDirection,WindDirectionDegrees,WindSpeedMPH,WindSpeedGustMPH,Humidity,HourlyPrecipIn,Conditions,Clouds,dailyrainin,SolarRadiationWatts/m^2,SoftwareType,DateUTC
2013-10-15 00:00:00,50.0,46.0,-100.00,ENE,67,1.0,-999.0,83,-99.99,,,-99.99,0.000000,,2013-10-15 05:00:00,
2013-10-15 00:42:00,50.0,46.0,-100.00,ENE,67,1.0,-999.0,83,-99.99,,,-99.99,0.000000,,2013-10-15 05:42:00,
2013-10-15 00:53:00,50.0,46.0,-100.00,ENE,67,1.0,-999.0,83,-99.99,,,-99.99,0.000000,,2013-10-15 05:53:00,
2013-10-15 01:00:00,47.0,42.0,-100.00,SSW,202,0.0,-999.0,83,-99.99,,,-99.99,0.000000,,2013-10-15 06:00:00,
2013-10-15 01:43:00,47.0,42.0,-100.00,SSW,202,0.0,-999.0,83,-99.99,,,-99.99,0.000000,,2013-10-15 06:43:00,
2013-10-15 01:52:00,47.0,42.0,-100.00,SSW,202,0.0,-999.0,83,-99.99,,,-99.99,0.000000,,2013-10-15 06:52:00,
2013-10-15 03:00:00,50.0,46.0,-100.00,SSE,157,3.0,-999.0,87,-99.99,,,-99.99,0.000000,,2013-10-15 08:00:00,
2013-10-15 03:42:00,50.0,46.0,-100.00,SSE,157,3.0,-999.0,87,-99.99,,,-99.99,0.000000,,2013-10-15 08:42:00,
2013-10-15 03:52:00,50.0,46.0,-100.00,SSE,157,3.0,-999.0,87,-99.99,,,-99.99,0.000000,,2013-10-15 08:52:00,
2013-10-15 04:00:00,50.0,46.0,-100.00,SSE,157,3.0,-999.0,84,-99.99,,,-99.99,0.000000,,2013-10-15 09:00:00,
2013-10-15 04:43:00,50.0,46.0,-100.00,SSE,157,3.0,-999.0,84,-99.99,,,-99.99,0.000000,,2013-10-15 09:43:00,
2013-10-15 04:53:00,50.0,46.0,-100.00,SSE,157,3.0,-999.0,84,-99.99,,,-99.99,0.000000,,2013-10-15 09:53:00,
2013-10-15 05:00:00,49.0,45.0,-100.00,SSE,157,1.0,-999.0,86,-99.99,,,-99.99,0.000000,,2013-10-15 10:00:00,
2013-10-15 05:43:00,49.0,45.0,-100.00,SSE,157,1.0,-999.0,86,-99.99,,,-99.99,0.000000,,2013-10-15 10:43:00,
2013-10-15 05:53:00,49.0,45.0,-100.00,SSE,157,1.0,-999.0,86,-99.99,,,-99.99,0.000000,,2013-10-15 10:53:00,
2013-10-15 06:00:00,49.0,46.0,-100.00,SSE,157,1.0,-999.0,88,-99.99,,,-99.99,0.000000,,2013-10-15 11:00:00,
2013-10-15 06:42:00,49.0,46.0,-100.00,SSE,157,1.0,-999.0,88,-99.99,,,-99.99,0.000000,,2013-10-15 11:42:00,
2013-10-15 06:53:00,49.0,46.0,-100.00,SSE,157,1.0,-999.0,88,-99.99,,,-99.99,0.000000,,2013-10-15 11:53:00,
2013-10-15 07:00:00,50.0,47.0,-100.00,SSE,157,2.0,-999.0,90,-99.99,,,-99.99,0.000000,,2013-10-15 12:00:00,
2013-10-15 07:42:00,50.0,47.0,-100.00,SSE,157,2.0,-999.0,90,-99.99,,,-99.99,0.000000,,2013-10-15 12:42:00,
2013-10-15 07:52:00,50.0,47.0,-100.00,SSE,157,2.0,-999.0,90,-99.99,,,-99.99,0.000000,,2013-10-15 12:52:00,
2013-10-15 08:00:00,52.0,48.0,-100.00,SSE,157,3.0,-999.0,88,-99.99,,,-99.99,13.920000,,2013-10-15 13:00:00,
2013-10-15 08:42:00,52.0,48.0,-100.00,SSE,157,3.0,-999.0,88,-99.99,,,-99.99,13.920000,,2013-10-15 13:42:00,
2013-10-15 08:52:00,52.0,48.0,-100.00,SSE,157,3.0,-999.0,88,-99.99,,,-99.99,13.920000,,2013-10-15 13:52:00,
2013-10-15 09:00:00,53.0,49.0,-100.00,SSE,157,6.0,-999.0,85,-99.99,,,-99.99,49.880001,,2013-10-15 14:00:00,
2013-10-15 09:42:00,53.0,49.0,-100.00,SSE,157,6.0,-999.0,85,-99.99,,,-99.99,49.880001,,2013-10-15 14:42:00,
2013-10-15 09:52:00,53.0,49.0,-100.00,SSE,157,6.0,-999.0,85,-99.99,,,-99.99,49.880001,,2013-10-15 14:52:00,
2013-10-15 10:00:00,54.0,49.0,-100.00,SSE,157,6.0,-999.0,83,-99.99,,,-99.99,116.000000,,2013-10-15 15:00:00,
2013-10-15 10:44:00,54.0,49.0,-100.00,SSE,157,6.0,-999.0,83,-99.99,,,-99.99,116.000000,,2013-10-15 15:44:00,
2013-10-15 10:53:00,54.0,49.0,-100.00,SSE,157,6.0,-999.0,83,-99.99,,,-99.99,116.000000,,2013-10-15 15:53:00,
2013-10-15 11:00:00,53.0,49.0,-100.00,SSE,157,5.0,-999.0,86,-99.99,,,-99.99,67.279999,,2013-10-15 16:00:00,
2013-10-15 11:43:00,53.0,49.0,-100.00,SSE,157,5.0,-999.0,86,-99.99,,,-99.99,67.279999,,2013-10-15 16:43:00,
2013-10-15 11:53:00,53.0,49.0,-100.00,SSE,157,5.0,-999.0,86,-99.99,,,-99.99,67.279999,,2013-10-15 16:53:00,
2013-10-15 12:00:00,53.0,50.0,-100.00,SSE,157,4.0,-999.0,87,0.01,,,-99.99,68.440002,,2013-10-15 17:00:00,
2013-10-15 12:42:00,53.0,50.0,-100.00,SSE,157,4.0,-999.0,87,0.01,,,-99.99,68.440002,,2013-10-15 17:42:00,
2013-10-15 12:53:00,53.0,50.0,-100.00,SSE,157,4.0,-999.0,87,0.01,,,-99.99,68.440002,,2013-10-15 17:53:00,
2013-10-15 13:00:00,53.0,50.0,-100.00,SE,135,2.0,-999.0,91,0.08,,,-99.99,45.240002,,2013-10-15 18:00:00,
2013-10-15 13:42:00,53.0,50.0,-100.00,SE,135,2.0,-999.0,91,0.08,,,-99.99,45.240002,,2013-10-15 18:42:00,
2013-10-15 13:52:00,53.0,50.0,-100.00,SE,135,2.0,-999.0,91,0.08,,,-99.99,45.240002,,2013-10-15 18:52:00,
2013-10-15 14:00:00,53.0,51.0,-100.00,SE,135,3.0,-999.0,94,0.12,,,-99.99,33.639999,,2013-10-15 19:00:00,
2013-10-15 14:42:00,53.0,51.0,-100.00,SE,135,3.0,-999.0,94,0.12,,,-99.99,33.639999,,2013-10-15 19:42:00,
2013-10-15 14:52:00,53.0,51.0,-100.00,SE,135,3.0,-999.0,94,0.12,,,-99.99,33.639999,,2013-10-15 19:52:00,
2013-10-15 15:00:00,53.0,52.0,-100.00,SSE,157,4.0,-999.0,95,0.24,,,-99.99,18.559999,,2013-10-15 20:00:00,
2013-10-15 15:42:00,53.0,52.0,-100.00,SSE,157,4.0,-999.0,95,0.24,,,-99.99,18.559999,,2013-10-15 20:42:00,
2013-10-15 15:52:00,53.0,52.0,-100.00,SSE,157,4.0,-999.0,95,0.24,,,-99.99,18.559999,,2013-10-15 20:52:00,
2013-10-15 16:00:00,54.0,53.0,-100.00,SSE,157,4.0,-999.0,95,0.05,,,-99.99,47.560001,,2013-10-15 21:00:00,
2013-10-15 16:44:00,54.0,53.0,-100.00,SSE,157,4.0,-999.0,95,0.05,,,-99.99,47.560001,,2013-10-15 21:44:00,
2013-10-15 16:54:00,54.0,53.0,-100.00,SSE,157,4.0,-999.0,95,0.05,,,-99.99,47.560001,,2013-10-15 21:54:00,
2013-10-15 17:00:00,54.0,53.0,-100.00,SSE,157,4.0,-999.0,96,-99.99,,,-99.99,15.080000,,2013-10-15 22:00:00,
2013-10-15 17:43:00,54.0,53.0,-100.00,SSE,157,4.0,-999.0,96,-99.99,,,-99.99,15.080000,,2013-10-15 22:43:00,
2013-10-15 17:53:00,54.0,53.0,-100.00,SSE,157,4.0,-999.0,96,-99.99,,,-99.99,15.080000,,2013-10-15 22:53:00,
2013-10-15 18:00:00,55.0,54.0,-100.00,South,180,4.0,-999.0,96,-99.99,,,-99.99,5.800000,,2013-10-15 23:00:00,
2013-10-15 18:43:00,55.0,54.0,-100.00,South,180,4.0,-999.0,96,-99.99,,,-99.99,5.800000,,2013-10-15 23:43:00,
2013-10-15 18:52:00,55.0,54.0,-100.00,South,180,4.0,-999.0,96,-99.99,,,-99.99,5.800000,,2013-10-15 23:52:00,
2013-10-15 19:00:00,55.0,54.0,-100.00,SSW,202,2.0,-999.0,96,-99.99,,,-99.99,0.000000,,2013-10-16 00:00:00,
2013-10-15 19:42:00,55.0,54.0,-100.00,SSW,202,2.0,-999.0,96,-99.99,,,-99.99,0.000000,,2013-10-16 00:42:00,
2013-10-15 19:52:00,55.0,54.0,-100.00,SSW,202,2.0,-999.0,96,-99.99,,,-99.99,0.000000,,2013-10-16 00:52:00,
2013-10-15 20:00:00,55.0,54.0,-100.00,SW,225,2.0,-999.0,96,-99.99,,,-99.99,0.000000,,2013-10-16 01:00:00,
2013-10-15 20:42:00,55.0,54.0,-100.00,SW,225,2.0,-999.0,96,-99.99,,,-99.99,0.000000,,2013-10-16 01:42:00,
2013-10-15 20:52:00,55.0,54.0,-100.00,SW,225,2.0,-999.0,96,-99.99,,,-99.99,0.000000,,2013-10-16 01:52:00,
2013-10-15 21:00:00,55.0,54.0,-100.00,SW,225,2.0,-999.0,96,-99.99,,,-99.99,0.000000,,2013-10-16 02:00:00,
2013-10-15 21:42:00,55.0,54.0,-100.00,SW,225,2.0,-999.0,96,-99.99,,,-99.99,0.000000,,2013-10-16 02:42:00,
2013-10-15 21:52:00,55.0,54.0,-100.00,SW,225,2.0,-999.0,96,-99.99,,,-99.99,0.000000,,2013-10-16 02:52:00,
2013-10-15 22:00:00,55.0,54.0,-100.00,SSW,202,3.0,-999.0,95,-99.99,,,-99.99,0.000000,,2013-10-16 03:00:00,
2013-10-15 22:45:00,55.0,54.0,-100.00,SSW,202,3.0,-999.0,95,-99.99,,,-99.99,0.000000,,2013-10-16 03:45:00,
2013-10-15 22:55:00,55.0,54.0,-100.00,SSW,202,3.0,-999.0,95,-99.99,,,-99.99,0.000000,,2013-10-16 03:55:00,
2013-10-15 23:00:00,54.0,53.0,-100.00,SW,225,4.0,-999.0,94,-99.99,,,-99.99,0.000000,,2013-10-16 04:00:00,
2013-10-15 23:44:00,54.0,53.0,-100.00,SW,225,4.0,-999.0,94,-99.99,,,-99.99,0.000000,,2013-10-16 04:44:00,
2013-10-15 23:54:00,54.0,53.0,-100.00,SW,225,4.0,-999.0,94,-99.99,,,-99.99,0.000000,,2013-10-16 04:54:00,